CW2285 Weather Reports


Display with metric or nautical units.
time (UTC)temp
F
wind
direction
speed
MPH
gust
MPH
rain 1hr
in
rain 24hr
in
rain mn
in
humidity
%
barometer
mb
20260901010004 100 312 10.0 21.0 0.00 0.00 0.00 21 1004.4
20260901005503 100 290 10.0 18.0 0.00 0.00 0.00 20 1004.4
20260901004503 101 259 11.0 21.0 0.00 0.00 0.00 20 1004.2
20260901004003 101 264 8.0 14.0 0.00 0.00 0.00 19 1004.2
20260901003004 102 286 9.0 18.0 0.00 0.00 0.00 19 1004.2
20260901002504 102 297 8.0 20.0 0.00 0.00 0.00 18 1004.3
20260901002003 102 289 10.0 20.0 0.00 0.00 0.00 19 1004.3
20260901001503 102 287 7.0 15.0 0.00 0.00 0.00 19 1004.2
20260901001003 102 317 9.0 20.0 0.00 0.00 0.00 19 1004.2
20260901000504 103 291 12.0 18.0 0.00 0.00 0.00 19 1004.1
20260901000004 103 299 5.0 15.0 0.00 0.00 0.00 18 1004.2
20260831235503 103 299 8.0 18.0 0.00 0.00 0.00 18 1004.2
20260831234503 103 279 7.0 14.0 0.00 0.00 0.00 18 1004.2
20260831233503 104 295 9.0 15.0 0.00 0.00 0.00 18 1004.2
20260831233004 104 278 9.0 16.0 0.00 0.00 0.00 17 1004.2
20260831232503 103 253 6.0 12.0 0.00 0.00 0.00 18 1004.2
20260831232003 104 297 7.0 14.0 0.00 0.00 0.00 18 1004.3
20260831231503 104 309 6.0 13.0 0.00 0.00 0.00 18 1004.3
20260831231004 104 299 9.0 16.0 0.00 0.00 0.00 17 1004.4
20260831230503 104 294 7.0 14.0 0.00 0.00 0.00 17 1004.4
20260831230004 104 291 7.0 12.0 0.00 0.00 0.00 17 1004.5
20260831225503 104 304 6.0 17.0 0.00 0.00 0.00 17 1004.6
20260831225004 104 283 5.0 12.0 0.00 0.00 0.00 17 1004.6
20260831224504 105 286 6.0 17.0 0.00 0.00 0.00 17 1004.7
20260831224003 105 257 9.0 15.0 0.00 0.00 0.00 16 1004.6
20260831223503 105 293 7.0 15.0 0.00 0.00 0.00 17 1004.7
20260831223004 104 307 4.0 12.0 0.00 0.00 0.00 17 1004.9
20260831222503 104 223 2.0 5.0 0.00 0.00 0.00 18 1005.1
20260831222003 104 222 5.0 7.0 0.00 0.00 0.00 18 1005.1
20260831220504 104 116 2.0 10.0 0.00 0.00 0.00 18 1005.2
20260831220004 104 77 5.0 8.0 0.00 0.00 0.00 18 1005.3
20260831215503 104 81 5.0 9.0 0.00 0.00 0.00 19 1005.6
20260831215004 103 105 3.0 6.0 0.00 0.00 0.00 18 1005.7
20260831214504 103 109 2.0 5.0 0.00 0.00 0.00 18 1005.7
20260831214004 103 254 4.0 7.0 0.00 0.00 0.00 18 1005.7
20260831213503 103 254 5.0 7.0 0.00 0.00 0.00 19 1005.7
20260831213004 102 227 3.0 7.0 0.00 0.00 0.00 19 1005.8
20260831212503 102 276 1.0 3.0 0.00 0.00 0.00 18 1006.0
20260831212004 102 346 1.0 3.0 0.00 0.00 0.00 20 1006.2
20260831211503 102 214 3.0 6.0 0.00 0.00 0.00 20 1006.2
20260831211004 102 324 1.0 5.0 0.00 0.00 0.00 20 1006.3
20260831210504 103 240 5.0 8.0 0.00 0.00 0.00 18 1006.5
20260831210004 102 235 3.0 6.0 0.00 0.00 0.00 20 1006.5
20260831205503 101 340 2.0 5.0 0.00 0.00 0.00 21 1006.6
20260831205003 102 245 5.0 6.0 0.00 0.00 0.00 19 1006.7
20260831204504 101 210 3.0 7.0 0.00 0.00 0.00 19 1006.7
20260831204003 102 133 2.0 6.0 0.00 0.00 0.00 19 1006.7
20260831203503 101 61 2.0 6.0 0.00 0.00 0.00 18 1006.8
20260831203004 102 178 5.0 7.0 0.00 0.00 0.00 19 1006.8
20260831202503 101 150 3.0 6.0 0.00 0.00 0.00 19 1006.9
20260831201504 101 289 1.0 6.0 0.00 0.00 0.00 20 1007.1
20260831201004 100 187 4.0 7.0 0.00 0.00 0.00 20 1007.2
20260831200504 100 223 2.0 9.0 0.00 0.00 0.00 19 1007.3
20260831200003 100 180 5.0 12.0 0.00 0.00 0.00 19 1007.3
20260831195004 100 98 2.0 6.0 0.00 0.00 0.00 20 1007.3
20260831194503 101 118 3.0 13.0 0.00 0.00 0.00 18 1007.3
20260831194004 101 100 6.0 9.0 0.00 0.00 0.00 19 1007.4
20260831193504 100 34 1.0 8.0 0.00 0.00 0.00 19 1007.5
20260831193003 100 144 1.0 5.0 0.00 0.00 0.00 19 1007.6
20260831192503 100 42 1.0 6.0 0.00 0.00 0.00 20 1007.6
20260831192004 99 48 2.0 5.0 0.00 0.00 0.00 22 1007.7
20260831191504 98 232 1.0 3.0 0.00 0.00 0.00 19 1007.8
20260831191004 100 77 3.0 8.0 0.00 0.00 0.00 19 1007.8
20260831190503 100 38 3.0 9.0 0.00 0.00 0.00 20 1007.8
20260831190003 100 82 5.0 10.0 0.00 0.00 0.00 19 1007.8
20260831184504 99 98 6.0 10.0 0.00 0.00 0.00 19 1007.9
20260831184004 99 127 6.0 12.0 0.00 0.00 0.00 19 1007.9
20260831183503 99 105 2.0 9.0 0.00 0.00 0.00 19 1007.9
20260831183004 98 83 2.0 9.0 0.00 0.00 0.00 19 1007.9
20260831182503 98 124 1.0 3.0 0.00 0.00 0.00 21 1007.9
20260831182003 97 197 4.0 8.0 0.00 0.00 0.00 19 1007.9
20260831181504 98 159 2.0 6.0 0.00 0.00 0.00 19 1007.9
20260831181004 97 107 2.0 5.0 0.00 0.00 0.00 20 1007.9
20260831180503 97 122 1.0 3.0 0.00 0.00 0.00 20 1007.9
20260831180003 97 112 3.0 5.0 0.00 0.00 0.00 20 1007.9
20260831175503 96 60 1.0 3.0 0.00 0.00 0.00 21 1007.9
20260831175003 96 232 2.0 3.0 0.00 0.00 0.00 22 1007.9
20260831174004 96 165 2.0 5.0 0.00 0.00 0.00 22 1008.0
20260831173503 96 232 2.0 5.0 0.00 0.00 0.00 22 1008.0
20260831173003 96 137 2.0 5.0 0.00 0.00 0.00 23 1008.0
20260831172503 95 150 2.0 3.0 0.00 0.00 0.00 24 1008.0
20260831172004 95 203 3.0 6.0 0.00 0.00 0.00 25 1008.1
20260831171503 94 183 1.0 3.0 0.00 0.00 0.00 25 1008.1
20260831170504 94 199 2.0 6.0 0.00 0.00 0.00 27 1008.0
20260831170003 94 217 4.0 7.0 0.00 0.00 0.00 27 1007.9
20260831165004 94 211 5.0 6.0 0.00 0.00 0.00 27 1007.9
20260831164503 93 214 3.0 5.0 0.00 0.00 0.00 29 1007.9
20260831164004 92 234 5.0 7.0 0.00 0.00 0.00 28 1007.9
20260831163503 92 198 3.0 7.0 0.00 0.00 0.00 29 1007.9
20260831163003 92 234 4.0 7.0 0.00 0.00 0.00 28 1007.9
20260831162503 92 233 6.0 7.0 0.00 0.00 0.00 27 1007.8
20260831162003 91 208 6.0 9.0 0.00 0.00 0.00 28 1007.8
20260831161503 91 205 5.0 7.0 0.00 0.00 0.00 29 1007.8
20260831160503 92 232 6.0 10.0 0.00 0.00 0.00 26 1007.8
20260831160003 91 234 4.0 9.0 0.00 0.00 0.00 26 1007.8
20260831155504 91 228 4.0 8.0 0.00 0.00 0.00 26 1007.8
20260831155004 91 238 4.0 8.0 0.00 0.00 0.00 24 1007.7
20260831154004 90 286 5.0 10.0 0.00 0.00 0.00 22 1007.7
20260831153504 90 279 6.0 12.0 0.00 0.00 0.00 23 1007.7
20260831153004 90 283 2.0 12.0 0.00 0.00 0.00 22 1007.6
20260831152004 90 295 5.0 9.0 0.00 0.00 0.00 21 1007.6
20260831151504 89 297 3.0 10.0 0.00 0.00 0.00 21 1007.7
20260831151003 89 300 3.0 8.0 0.00 0.00 0.00 22 1007.6
20260831150504 88 296 6.0 12.0 0.00 0.00 0.00 22 1007.6
20260831145503 88 284 6.0 12.0 0.00 0.00 0.00 22 1007.4
20260831145004 87 293 5.0 9.0 0.00 0.00 0.00 23 1007.4
20260831144504 87 292 7.0 12.0 0.00 0.00 0.00 24 1007.3
20260831144003 87 291 3.0 12.0 0.00 0.00 0.00 24 1007.3
20260831143004 86 271 5.0 14.0 0.00 0.00 0.00 25 1007.3
20260831142503 86 274 7.0 12.0 0.00 0.00 0.00 25 1007.3
20260831142003 86 297 9.0 14.0 0.00 0.00 0.00 25 1007.2
20260831141504 86 293 6.0 17.0 0.00 0.00 0.00 26 1007.1
20260831141003 86 281 7.0 14.0 0.00 0.00 0.00 26 1006.9
20260831140003 85 288 6.0 15.0 0.00 0.00 0.00 27 1006.7
20260831135503 85 283 9.0 17.0 0.00 0.00 0.00 28 1006.7
20260831135003 85 290 7.0 14.0 0.00 0.00 0.00 28 1006.7
20260831134503 84 273 7.0 17.0 0.00 0.00 0.00 28 1006.6
20260831134004 84 258 7.0 12.0 0.00 0.00 0.00 30 1006.6
20260831133503 84 278 9.0 14.0 0.00 0.00 0.00 30 1006.5
20260831132004 84 273 7.0 14.0 0.00 0.00 0.00 32 1006.2
20260831131504 84 297 7.0 13.0 0.00 0.00 0.00 32 1006.2
20260831131004 85 281 9.0 18.0 0.00 0.00 0.00 32 1006.2
20260831130503 84 289 5.0 14.0 0.00 0.00 0.00 31 1006.2
20260831130004 84 301 5.0 12.0 0.00 0.00 0.00 32 1006.2
20260831125504 84 278 6.0 12.0 0.00 0.00 0.00 32 1006.2
20260831125003 84 292 6.0 12.0 0.00 0.00 0.00 33 1006.1
20260831124504 84 294 5.0 12.0 0.00 0.00 0.00 33 1006.0
20260831123504 84 311 3.0 9.0 0.00 0.00 0.00 34 1005.9
20260831123004 85 323 4.0 9.0 0.00 0.00 0.00 34 1005.9
20260831122504 85 302 4.0 9.0 0.00 0.00 0.00 34 1005.8
20260831122004 85 302 6.0 14.0 0.00 0.00 0.00 34 1005.7
20260831121003 85 308 6.0 10.0 0.00 0.00 0.00 34 1005.7
20260831120504 85 293 4.0 8.0 0.00 0.00 0.00 34 1005.7
20260831120004 85 325 2.0 8.0 0.00 0.00 0.00 34 1005.7
20260831114504 85 317 3.0 6.0 0.00 0.00 0.00 34 1005.5
20260831114003 85 299 3.0 7.0 0.00 0.00 0.00 34 1005.4
20260831113004 85 318 3.0 12.0 0.00 0.00 0.00 34 1005.4
20260831112503 85 299 3.0 6.0 0.00 0.00 0.00 34 1005.4
20260831112003 85 328 2.0 9.0 0.00 0.00 0.00 34 1005.3
20260831111004 85 299 3.0 12.0 0.00 0.00 0.00 35 1005.3
20260831110504 85 325 4.0 12.0 0.00 0.00 0.00 34 1005.3
20260831105503 86 310 6.0 14.0 0.00 0.00 0.00 34 1005.3
20260831105003 86 316 5.0 12.0 0.00 0.00 0.00 34 1005.2
20260831104503 86 306 4.0 12.0 0.00 0.00 0.00 33 1005.2
20260831104004 86 305 5.0 9.0 0.00 0.00 0.00 33 1005.2
20260831103503 86 309 5.0 9.0 0.00 0.00 0.00 33 1005.2
20260831103003 87 322 4.0 15.0 0.00 0.00 0.00 32 1005.2
20260831102504 87 315 4.0 7.0 0.00 0.00 0.00 32 1005.2
20260831102004 87 302 7.0 13.0 0.00 0.00 0.00 30 1005.2
20260831101504 88 301 6.0 13.0 0.00 0.00 0.00 31 1005.2
20260831101003 88 299 8.0 14.0 0.00 0.00 0.00 30 1005.2
20260831100504 87 296 5.0 16.0 0.00 0.00 0.00 31 1005.2
20260831095504 87 313 4.0 10.0 0.00 0.00 0.00 31 1005.2
20260831095004 88 308 5.0 12.0 0.00 0.00 0.00 30 1005.2
20260831094504 88 287 4.0 12.0 0.00 0.00 0.00 30 1005.2
20260831094003 88 306 4.0 13.0 0.00 0.00 0.00 29 1005.2
20260831093503 88 311 5.0 13.0 0.00 0.00 0.00 30 1005.2
20260831093004 88 286 9.0 15.0 0.00 0.00 0.00 30 1005.2
20260831092503 88 299 7.0 20.0 0.00 0.00 0.00 32 1005.2
20260831091504 87 299 4.0 9.0 0.00 0.00 0.00 32 1005.2
20260831091004 88 309 4.0 12.0 0.00 0.00 0.00 33 1005.2
20260831090503 88 299 5.0 13.0 0.00 0.00 0.00 32 1005.2
20260831090004 88 301 5.0 13.0 0.00 0.00 0.00 32 1005.2
20260831085504 88 300 6.0 18.0 0.00 0.00 0.00 32 1005.2
20260831085004 89 303 7.0 16.0 0.00 0.00 0.00 31 1005.3
20260831084503 89 292 8.0 14.0 0.00 0.00 0.00 31 1005.3
20260831084003 89 313 5.0 10.0 0.00 0.00 0.00 30 1005.3
20260831083504 89 315 5.0 10.0 0.00 0.00 0.00 30 1005.4
20260831083003 89 313 3.0 7.0 0.00 0.00 0.00 31 1005.4
20260831082503 89 295 4.0 9.0 0.00 0.00 0.00 31 1005.4
20260831082003 89 304 3.0 9.0 0.00 0.00 0.00 30 1005.4
20260831080503 89 312 4.0 14.0 0.00 0.00 0.00 30 1005.4
20260831080004 89 312 4.0 10.0 0.00 0.00 0.00 29 1005.4
20260831075503 89 311 5.0 12.0 0.00 0.00 0.00 30 1005.4
20260831075004 89 296 6.0 13.0 0.00 0.00 0.00 30 1005.6
20260831074504 89 305 5.0 12.0 0.00 0.00 0.00 31 1005.6
20260831074003 89 308 5.0 7.0 0.00 0.00 0.00 31 1005.6
20260831073504 89 305 3.0 9.0 0.00 0.00 0.00 31 1005.6
20260831073003 89 316 5.0 12.0 0.00 0.00 0.00 31 1005.5
20260831072503 89 306 3.0 8.0 0.00 0.00 0.00 32 1005.4
20260831072004 89 313 3.0 8.0 0.00 0.00 0.00 31 1005.3
20260831071003 89 328 4.0 8.0 0.00 0.00 0.00 31 1005.3
20260831070504 89 295 3.0 8.0 0.00 0.00 0.00 31 1005.3
20260831070003 89 319 3.0 8.0 0.00 0.00 0.00 31 1005.2
20260831065503 89 316 4.0 8.0 0.00 0.00 0.00 30 1005.2
20260831065003 90 313 3.0 8.0 0.00 0.00 0.00 30 1005.3
20260831064504 90 309 4.0 9.0 0.00 0.00 0.00 29 1005.3
20260831064004 90 308 5.0 12.0 0.00 0.00 0.00 29 1005.3
20260831063504 90 305 6.0 13.0 0.00 0.00 0.00 29 1005.3
20260831063004 90 309 6.0 12.0 0.00 0.00 0.00 29 1005.3
20260831062504 90 296 7.0 15.0 0.00 0.00 0.00 29 1005.4
20260831062004 90 310 6.0 12.0 0.00 0.00 0.00 29 1005.4
20260831060504 91 308 6.0 14.0 0.00 0.00 0.00 28 1005.3
20260831055503 91 317 5.0 12.0 0.00 0.00 0.00 27 1005.2
20260831055004 91 296 3.0 13.0 0.00 0.00 0.00 27 1005.2
20260831054504 91 307 4.0 9.0 0.00 0.00 0.00 27 1005.2
20260831054003 92 316 5.0 12.0 0.00 0.00 0.00 27 1005.3
20260831053503 92 300 6.0 17.0 0.00 0.00 0.00 26 1005.3
20260831053004 92 314 5.0 12.0 0.00 0.00 0.00 26 1005.3
20260831052503 92 314 7.0 16.0 0.00 0.00 0.00 26 1005.2
20260831052003 92 302 6.0 13.0 0.00 0.00 0.00 26 1005.2
20260831051003 93 287 12.0 20.0 0.00 0.00 0.00 25 1005.2
20260831050502 93 302 9.0 16.0 0.00 0.00 0.00 25 1005.2
20260831050003 93 298 10.0 18.0 0.00 0.00 0.00 24 1005.2
20260831045503 94 281 9.0 17.0 0.00 0.00 0.00 25 1005.1
20260831045003 94 292 9.0 18.0 0.00 0.00 0.00 24 1005.2
20260831044503 93 302 10.0 16.0 0.00 0.00 0.00 25 1005.1
20260831044002 93 305 9.0 17.0 0.00 0.00 0.00 25 1005.2
20260831043502 93 296 7.0 17.0 0.00 0.00 0.00 25 1005.1
20260831043003 93 313 6.0 13.0 0.00 0.00 0.00 25 1005.1
20260831042004 94 304 7.0 14.0 0.00 0.00 0.00 25 1005.1
20260831041003 94 327 5.0 10.0 0.00 0.00 0.00 26 1005.0
20260831040502 94 299 5.0 14.0 0.00 0.00 0.00 26 1004.9
20260831040003 94 298 5.0 17.0 0.00 0.00 0.00 26 1004.8
20260831035503 94 300 8.0 15.0 0.00 0.00 0.00 26 1004.7
20260831035003 94 305 5.0 13.0 0.00 0.00 0.00 27 1004.7
20260831034502 95 307 5.0 10.0 0.00 0.00 0.00 27 1004.6
20260831033502 95 300 5.0 12.0 0.00 0.00 0.00 27 1004.5
20260831033003 95 311 6.0 12.0 0.00 0.00 0.00 27 1004.2
20260831032502 95 325 4.0 13.0 0.00 0.00 0.00 29 1004.2
20260831031003 96 299 3.0 15.0 0.00 0.00 0.00 28 1004.1
20260831030503 97 301 6.0 14.0 0.00 0.00 0.00 28 1004.0
20260831030002 97 290 5.0 12.0 0.00 0.00 0.00 28 1003.9
20260831025502 97 301 4.0 10.0 0.00 0.00 0.00 28 1003.8
20260831025003 97 273 5.0 12.0 0.00 0.00 0.00 27 1003.9
20260831024502 97 275 6.0 14.0 0.00 0.00 0.00 27 1003.9
20260831024003 98 300 7.0 15.0 0.00 0.00 0.00 27 1003.7
20260831023502 98 299 7.0 12.0 0.00 0.00 0.00 28 1003.6
20260831023002 98 288 5.0 15.0 0.00 0.00 0.00 28 1003.6
20260831022503 98 293 6.0 15.0 0.00 0.00 0.00 28 1003.5
20260831022002 98 281 6.0 14.0 0.00 0.00 0.00 28 1003.5
20260831021503 99 279 6.0 20.0 0.00 0.00 0.00 28 1003.3
20260831021003 99 284 7.0 20.0 0.00 0.00 0.00 27 1003.0
20260831020503 99 240 7.0 10.0 0.00 0.00 0.00 28 1003.0
20260831020002 99 277 7.0 16.0 0.00 0.00 0.00 28 1003.0
20260831015003 100 278 9.0 20.0 0.00 0.00 0.00 27 1003.0
20260831014503 101 288 8.0 23.0 0.00 0.00 0.00 26 1003.0
20260831013503 101 285 8.0 17.0 0.00 0.00 0.00 26 1002.9
20260831013003 102 286 10.0 16.0 0.00 0.00 0.00 25 1002.9
20260831012502 102 293 11.0 20.0 0.00 0.00 0.00 24 1002.8
20260831011502 103 286 7.0 16.0 0.00 0.00 0.00 22 1002.8
20260831011003 104 297 9.0 17.0 0.00 0.00 0.00 21 1002.7
20260831010502 104 291 7.0 18.0 0.00 0.00 0.00 20 1002.8